Hourly Data Report for July 20, 2017

PITT MEADOWS CS
BRITISH COLUMBIA

49°12'29.964" N
122°41'24.076" W
5.00 m
1106178
71775
WMM

Download Data

Hourly Data (July 2017)
Hourly Data Report for July 20, 2017
TIME
LST
Temp Definition
°C
Dew Point Definition
°C
Rel Hum Definition
%
Precip. Amount Definition
mm

Wind Dir Definition
10's deg

Wind Spd Definition
km/h
Visibility Definition
km
Stn Press Definition
kPa
Hmdx Definition


Wind Chill Definition


Weather Definition


00:00 17.1 11.5 70 0.0 12 8   101.53     LegendNANA
01:00 17.2 11.8 71 0.0 12 7   101.53     LegendNANA
02:00 16.6 11.9 74 0.0 9 7   101.54     LegendNANA
03:00 16.9 11.9 73 0.0 9 5   101.58     LegendNANA
04:00 16.8 11.9 73 0.0 10 7   101.62     LegendNANA
05:00 15.9 13.0 83 0.1 10 6   101.68     LegendNANA
06:00 15.5 13.6 89 0.7 10 7   101.73     LegendNANA
07:00 15.2 13.7 91 0.4 10 8   101.78     LegendNANA
08:00 15.6 14.1 91 0.2 9 6   101.82     LegendNANA
09:00 16.9 15.1 89 0.2 8 7   101.83     LegendNANA
10:00 18.3 13.9 76 0.0 14 3   101.87     LegendNANA
11:00 19.4 13.4 68 0.0 16 4   101.91     LegendNANA
12:00 19.8 13.1 65 0.0 11 10   101.93     LegendNANA
13:00 20.9 12.0 57 0.0 17 6   101.94     LegendNANA
14:00 21.7 10.9 50 0.0 18 11   101.92     LegendNANA
15:00 21.3 11.0 52 0.0 21 10   101.92     LegendNANA
16:00 21.6 10.8 50 0.0 18 10   101.90     LegendNANA
17:00 21.2 10.5 50 0.0 23 7   101.89     LegendNANA
18:00 21.1 11.0 53 0.0 20 5   101.89     LegendNANA
19:00 20.3 11.3 56 0.0 18 4   101.90     LegendNANA
20:00 19.6 11.4 59 0.0 10 3   101.90     LegendNANA
21:00 17.3 13.7 79 0.0 1 11   101.93     LegendNANA
22:00 16.3 13.9 86 0.0 1 4   101.93     LegendNANA
23:00 15.6 12.9 84 0.0 3 6   101.94     LegendNANA

Notes on Data Quality.

Legend

  • E = Estimated
  • M = Missing
  • NA = Not Available*
  • [empty] = Indicates an unobserved value
Date modified: